Content
SEND FEEDBACK

Daily
Averages
Monthly
Summary
United States of America

SOUTH LAKE TAHOE, CALIFORNIA


Home > North America > United States > California
Elevation: 6263 feet     Latitude: 38 53N     Longitude: 119 59W

WEATHER
 
SELECT A DAY
Number of Records: 176,931;   Date Range: 1/1/95 - 10/18/14
 
SHARE

PRINT THIS DATA

[ ← Previous Day ]
WEATHER ALMANAC - APRIL 23, 2013
[ Next Day → ]
[ °C ]   °F
Weather ElementAverageHighLow
Temperature47.9 °F63 °F (5:53 pm)37 °F (11:53 pm)
Dewpoint18.3 °F30.9 °F (6:53 pm)7 °F (2:53 am)
Humidity33.3 %70 % (11:53 pm)21 % (3:53 pm)
Barometer30.02 in30.09 in (7:53 am)29.92 in (4:53 pm)
Wind Speed3.7 mph9.2 mph (2:53 am)
Wind Gust24.2 mph (2:53 am)
Weather ElementAverage
Visibility10 mi
Wind DirectionNNE (20.9 °)

Weather ElementTotal
Precipitation---
Heating Degree Days15 (Base 65)
Averaged from 23 records on April 23, 2013
WEATHER CONDITIONS BREAKOUT
WIND DIRECTION BREAKOUT
WEATHER BY HOUR - APRIL 23, 2013
[ °C ]   °F
Local TimeTemperatureDewpointHumidityBarometerVisibilityWind DirectionWind SpeedGust SpeedPrecipitationEventsConditions
1:53 AM42.1 °F8.1 °F25 %30.08 in10.0 miVariable5.8 mphClear
2:53 AM41.0 °F7.0 °F25 %30.06 in10.0 miENE (60°)9.2 mph24.2 mphClear
3:53 AM39.9 °F8.1 °F27 %30.05 in10.0 miVariable5.8 mphClear
4:53 AM39.9 °F7.0 °F26 %30.04 in10.0 miSE (140°)8.1 mphClear
5:53 AM39.0 °F7.0 °F27 %30.06 in10.0 miESE (120°)3.5 mph18.4 mphClear
6:53 AM37.9 °F9.0 °F30 %30.08 in10.0 miVariable3.5 mphClear
7:53 AM37.9 °F14.0 °F38 %30.09 in10.0 miCalmClear
8:53 AM45.0 °F12.9 °F27 %30.09 in10.0 miCalmClear
9:53 AM48.0 °F12.9 °F24 %30.09 in10.0 miCalmClear
10:53 AM50.0 °F14.0 °F24 %30.09 in10.0 miNNE (20°)8.1 mphClear
11:53 AM52.0 °F15.1 °F23 %30.06 in10.0 miENE (60°)5.8 mphClear
12:53 PM55.0 °F18.0 °F23 %30.04 in10.0 miCalmClear
1:53 PM55.0 °F19.0 °F24 %30.01 in10.0 miNNE (20°)6.9 mphClear
2:53 PM57.0 °F18.0 °F22 %29.99 in10.0 miNNE (20°)9.2 mphClear
3:53 PM60.1 °F19.9 °F21 %29.96 in10.0 miNorth (10°)3.5 mphClear
4:53 PM62.1 °F24.1 °F23 %29.92 in10.0 miNNE (30°)8.1 mphClear
5:53 PM63.0 °F26.1 °F25 %29.92 in10.0 miVariable3.5 mphClear
6:53 PM59.0 °F30.9 °F35 %29.94 in10.0 miVariable3.5 mphClear
7:53 PM51.1 °F30.9 °F46 %29.96 in10.0 miCalmClear
8:53 PM46.0 °F30.0 °F54 %29.97 in10.0 miCalmClear
9:53 PM44.1 °F30.0 °F58 %29.98 in10.0 miCalmClear
10:53 PM39.9 °F30.0 °F68 %29.98 in10.0 miCalmClear
11:53 PM37.0 °F28.0 °F70 %29.98 in10.0 miCalmClear
Hourly data recorded from KTVL, located miles away from South Lake Tahoe, California







STORIES FROM OUR PARTNERS